When you browse on this site, cookies collect data to enhance your experience and personalize the content and advertising you see.
Visit our Privacy Policy to learn more. By continuing to use the site, you agree to this use of cookies and data.
EN

Hourly Weather Jandiala

Today, 7 July, Tuesday

Time Temperature Precipitation Wind Pressure Humidity
00:00 +37°C° 0 mm 2 mps 730 mmHg 35%
01:00 +36°C° 0 mm 2 mps 730 mmHg 37%
02:00 +36°C° 0 mm 2 mps 730 mmHg 38%
03:00 +35°C° 0 mm 2 mps 730 mmHg 41%
04:00 +35°C° 0 mm 3 mps 730 mmHg 44%
05:00 +34°C° 0 mm 3 mps 730 mmHg 53%
06:00 +35°C° 0 mm 4 mps 731 mmHg 52%
07:00 +36°C° 0 mm 4 mps 731 mmHg 50%
08:00 +37°C° 0 mm 4 mps 731 mmHg 48%
09:00 +38°C° 0 mm 4 mps 731 mmHg 43%
10:00 +40°C° 0 mm 3 mps 731 mmHg 37%
11:00 +43°C° 0 mm 3 mps 731 mmHg 32%
12:00 +42°C° 0 mm 5 mps 731 mmHg 35%
13:00 +40°C° 0 mm 6 mps 731 mmHg 39%
14:00 +39°C° 0 mm 8 mps 731 mmHg 42%
15:00 +39°C° 0 mm 7 mps 731 mmHg 42%
16:00 +39°C° 0 mm 7 mps 731 mmHg 41%
17:00 +40°C° 0 mm 7 mps 731 mmHg 41%
18:00 +38°C° 0 mm 6 mps 731 mmHg 45%
19:00 +36°C° 0 mm 6 mps 732 mmHg 48%
20:00 +34°C° 0 mm 5 mps 732 mmHg 52%
21:00 +34°C° 0 mm 5 mps 732 mmHg 54%
22:00 +33°C° 0 mm 4 mps 733 mmHg 56%
23:00 +33°C° 0 mm 4 mps 733 mmHg 58%

Tomorrow, 8 July, Wednesday

Time Temperature Precipitation Wind Pressure Humidity
00:00 +33°C° 0 mm 3 mps 733 mmHg 59%
01:00 +31°C° 0 mm 3 mps 732 mmHg 60%
02:00 +31°C° 0 mm 2 mps 732 mmHg 61%
03:00 +31°C° 0 mm 2 mps 732 mmHg 61%
04:00 +31°C° 0 mm 2 mps 732 mmHg 62%
05:00 +31°C° 0 mm 2 mps 732 mmHg 62%
06:00 +31°C° 0 mm 2 mps 732 mmHg 61%
07:00 +32°C° 0 mm 2 mps 732 mmHg 60%
08:00 +32°C° 0 mm 2 mps 733 mmHg 59%
09:00 +34°C° 0 mm 2 mps 733 mmHg 56%
10:00 +35°C° 0 mm 2 mps 733 mmHg 52%
11:00 +36°C° 0 mm 2 mps 733 mmHg 48%
12:00 +37°C° 0 mm 2 mps 732 mmHg 44%
13:00 +39°C° 0 mm 3 mps 732 mmHg 40%
14:00 +40°C° 0 mm 3 mps 732 mmHg 36%
15:00 +40°C° 0 mm 3 mps 731 mmHg 37%
16:00 +40°C° 0 mm 3 mps 731 mmHg 37%
17:00 +40°C° 0 mm 3 mps 731 mmHg 37%
18:00 +39°C° 0 mm 3 mps 731 mmHg 40%
19:00 +38°C° 0 mm 3 mps 731 mmHg 43%
20:00 +36°C° 0 mm 3 mps 731 mmHg 46%
21:00 +36°C° 0 mm 3 mps 731 mmHg 48%
22:00 +35°C° 0 mm 3 mps 731 mmHg 50%
23:00 +35°C° 0 mm 3 mps 731 mmHg 52%

Day after tomorrow, 9 July, Thursday

Time Temperature Precipitation Wind Pressure Humidity
00:00 +34°C° 0 mm 2 mps 730 mmHg 53%
01:00 +34°C° 0 mm 2 mps 730 mmHg 54%
02:00 +34°C° 0 mm 2 mps 730 mmHg 55%
03:00 +32°C° 0 mm 1 mps 730 mmHg 56%
04:00 +32°C° 0 mm 1 mps 729 mmHg 58%
05:00 +32°C° 0 mm 1 mps 729 mmHg 59%
06:00 +33°C° 0 mm 1 mps 729 mmHg 55%
07:00 +33°C° 0 mm 0 mps 729 mmHg 51%
08:00 +34°C° 0 mm 0 mps 730 mmHg 47%
09:00 +36°C° 0 mm 0 mps 729 mmHg 42%
10:00 +41°C° 0 mm 1 mps 729 mmHg 36%
11:00 +43°C° 0 mm 1 mps 729 mmHg 31%
12:00 +45°C° 0 mm 2 mps 728 mmHg 29%
13:00 +45°C° 0 mm 2 mps 727 mmHg 27%
14:00 +46°C° 0 mm 3 mps 727 mmHg 26%
15:00 +46°C° 0 mm 3 mps 726 mmHg 25%
16:00 +46°C° 0 mm 3 mps 726 mmHg 25%
17:00 +46°C° 0 mm 3 mps 726 mmHg 24%
18:00 +45°C° 0 mm 3 mps 726 mmHg 25%
19:00 +44°C° 0 mm 3 mps 726 mmHg 27%
20:00 +43°C° 0 mm 3 mps 726 mmHg 28%
21:00 +42°C° 0 mm 3 mps 726 mmHg 30%
22:00 +40°C° 0 mm 3 mps 726 mmHg 31%
23:00 +40°C° 0 mm 3 mps 726 mmHg 32%

10 July, Friday

Time Temperature Precipitation Wind Pressure Humidity
00:00 +39°C° 0 mm 2 mps 726 mmHg 33%
01:00 +39°C° 0 mm 2 mps 725 mmHg 34%
02:00 +37°C° 0 mm 1 mps 725 mmHg 35%
03:00 +37°C° 0.1 mm 1 mps 725 mmHg 36%
04:00 +37°C° 0.1 mm 2 mps 725 mmHg 37%
05:00 +37°C° 0.1 mm 2 mps 725 mmHg 39%
06:00 +38°C° 0.1 mm 2 mps 726 mmHg 37%
07:00 +39°C° 0.1 mm 1 mps 726 mmHg 36%
08:00 +40°C° 0.1 mm 1 mps 726 mmHg 34%
09:00 +42°C° 0 mm 2 mps 726 mmHg 31%
10:00 +45°C° 0 mm 2 mps 726 mmHg 27%
11:00 +47°C° 0 mm 3 mps 726 mmHg 23%
12:00 +48°C° 0 mm 4 mps 725 mmHg 22%
13:00 +49°C° 0 mm 4 mps 725 mmHg 21%
14:00 +50°C° 0 mm 4 mps 724 mmHg 19%
15:00 +48°C° 0.3 mm 4 mps 724 mmHg 24%
16:00 +44°C° 0.3 mm 4 mps 723 mmHg 28%
17:00 +42°C° 0.3 mm 4 mps 722 mmHg 33%
18:00 +41°C° 0.1 mm 4 mps 723 mmHg 35%
19:00 +40°C° 0.1 mm 4 mps 723 mmHg 36%
20:00 +38°C° 0.1 mm 4 mps 723 mmHg 38%
21:00 +38°C° 0 mm 4 mps 724 mmHg 39%
22:00 +38°C° 0 mm 4 mps 725 mmHg 40%
23:00 +39°C° 0 mm 5 mps 725 mmHg 40%

11 July, Saturday

Time Temperature Precipitation Wind Pressure Humidity
00:00 +37°C° 0 mm 4 mps 725 mmHg 42%
01:00 +37°C° 0 mm 4 mps 725 mmHg 44%
02:00 +36°C° 0 mm 4 mps 725 mmHg 46%
03:00 +35°C° 0.5 mm 3 mps 725 mmHg 50%
04:00 +34°C° 0.5 mm 3 mps 725 mmHg 54%
05:00 +34°C° 0.5 mm 2 mps 725 mmHg 58%
06:00 +32°C° 2.4 mm 2 mps 726 mmHg 62%
07:00 +32°C° 2.4 mm 2 mps 726 mmHg 65%
08:00 +31°C° 2.4 mm 2 mps 726 mmHg 68%
09:00 +34°C° 1.7 mm 3 mps 726 mmHg 64%
10:00 +35°C° 1.7 mm 3 mps 727 mmHg 59%
11:00 +36°C° 1.7 mm 3 mps 727 mmHg 55%
12:00 +38°C° 0.2 mm 3 mps 726 mmHg 49%
13:00 +41°C° 0.2 mm 4 mps 726 mmHg 43%
14:00 +43°C° 0.2 mm 4 mps 726 mmHg 37%
15:00 +41°C° 0.7 mm 4 mps 725 mmHg 41%
16:00 +40°C° 0.7 mm 4 mps 725 mmHg 45%
17:00 +37°C° 0.7 mm 4 mps 725 mmHg 50%
18:00 +35°C° 1.3 mm 3 mps 725 mmHg 52%
19:00 +33°C° 1.3 mm 3 mps 726 mmHg 54%
20:00 +31°C° 1.3 mm 3 mps 726 mmHg 56%
21:00 +30°C° 0.9 mm 3 mps 727 mmHg 60%
22:00 +30°C° 0.9 mm 3 mps 727 mmHg 64%
23:00 +29°C° 0.9 mm 3 mps 728 mmHg 68%

12 July, Sunday

Time Temperature Precipitation Wind Pressure Humidity
00:00 +30°C° 1.2 mm 2 mps 728 mmHg 68%
01:00 +30°C° 1.2 mm 2 mps 728 mmHg 68%
02:00 +30°C° 1.2 mm 2 mps 728 mmHg 67%
03:00 +30°C° 0.5 mm 2 mps 728 mmHg 68%
04:00 +30°C° 0.5 mm 2 mps 728 mmHg 69%
05:00 +30°C° 0.5 mm 2 mps 727 mmHg 70%
06:00 +31°C° 0 mm 2 mps 728 mmHg 65%
07:00 +32°C° 0 mm 2 mps 728 mmHg 61%
08:00 +34°C° 0 mm 2 mps 729 mmHg 57%
09:00 +35°C° 0 mm 1 mps 729 mmHg 50%
10:00 +37°C° 0 mm 1 mps 729 mmHg 43%
11:00 +40°C° 0 mm 1 mps 729 mmHg 37%
12:00 +41°C° 0 mm 2 mps 729 mmHg 34%
13:00 +42°C° 0 mm 2 mps 728 mmHg 31%
14:00 +44°C° 0 mm 3 mps 728 mmHg 28%
15:00 +44°C° 0 mm 3 mps 728 mmHg 28%
16:00 +43°C° 0 mm 3 mps 727 mmHg 28%
17:00 +43°C° 0 mm 3 mps 727 mmHg 29%
18:00 +42°C° 0 mm 3 mps 727 mmHg 31%
19:00 +40°C° 0 mm 2 mps 728 mmHg 33%
20:00 +38°C° 0 mm 2 mps 728 mmHg 36%
21:00 +37°C° 0 mm 1 mps 728 mmHg 37%
22:00 +36°C° 0 mm 1 mps 729 mmHg 37%
23:00 +34°C° 0 mm 0 mps 729 mmHg 38%
Show more